IZ2XCK-13 Weather Reports


Display with metric or nautical units.
time (UTC)temp
F
wind
direction
speed
MPH
gust
MPH
rain 1hr
in
rain 24hr
in
rain mn
in
humidity
%
barometer
mb
20260505040517 58 0.0 0.0 0.00 0.00 0.00 47 1014.0
20260505034516 58 0.0 0.0 0.00 0.00 0.00 48 1013.9
20260505032516 57 0.0 0.0 0.00 0.00 0.00 50 1013.7
20260505030516 57 0.0 0.0 0.00 0.00 0.00 49 1014.7
20260505024515 57 0.0 0.0 0.00 0.00 0.00 50 1014.8
20260505022515 57 0.0 0.0 0.00 0.00 0.00 49 1014.8
20260505020515 57 0.0 0.0 0.00 0.00 0.00 50 1014.9
20260505014515 57 0.0 0.0 0.00 0.00 0.00 50 1015.2
20260505012514 57 0.0 0.0 0.00 0.00 0.00 50 1015.7
20260505010514 57 0.0 0.0 0.00 0.00 0.00 51 1016.1
20260505004513 57 0.0 0.0 0.00 0.00 0.00 50 1016.5
20260505002513 57 0.0 0.0 0.00 0.00 0.00 49 1016.7
20260505000513 58 0.0 0.0 0.00 0.00 0.00 49 1016.8
20260504234513 58 0.0 0.0 0.00 0.00 0.00 47 1016.9
20260504232512 58 0.0 0.0 0.00 0.00 0.00 48 1017.2
20260504230512 58 0.0 0.0 0.00 0.00 0.00 49 1017.5
20260504224512 58 0.0 0.0 0.00 0.00 0.00 49 1017.6
20260504222511 58 0.0 0.0 0.00 0.00 0.00 47 1017.7
20260504220511 60 0.0 0.0 0.00 0.00 0.00 45 1017.8
20260504214511 59 0.0 0.0 0.00 0.00 0.00 47 1018.0
20260504212510 61 0.0 0.0 0.00 0.00 0.00 43 1018.1
20260504210510 60 0.0 0.0 0.00 0.00 0.00 45 1018.2
20260504204510 61 0.0 0.0 0.00 0.00 0.00 43 1018.2
20260504202510 61 0.0 0.0 0.00 0.00 0.00 43 1018.1
20260504200509 61 0.0 0.0 0.00 0.00 0.00 43 1018.0
20260504194509 62 0.0 0.0 0.00 0.00 0.00 43 1018.0
20260504192508 63 0.0 0.0 0.00 0.00 0.00 42 1017.8
20260504190508 64 0.0 0.0 0.00 0.00 0.00 40 1017.7
20260504184508 65 0.0 0.0 0.00 0.00 0.00 41 1017.6
20260504182508 64 0.0 0.0 0.00 0.00 0.00 39 1017.6
20260504180507 65 0.0 0.0 0.00 0.00 0.00 38 1017.5
20260504174507 65 0.0 0.0 0.00 0.00 0.00 37 1017.3
20260504172507 66 0.0 0.0 0.00 0.00 0.00 37 1017.2
20260504170506 67 0.0 0.0 0.00 0.00 0.00 38 1017.2
20260504150505 70 0.0 0.0 0.00 0.00 0.00 35 1017.0
20260504140503 70 0.0 0.0 0.00 0.00 0.00 34 1017.6
20260504130503 72 0.0 0.0 0.00 0.00 0.00 32 1017.5
20260504110501 71 0.0 0.0 0.00 0.00 0.00 35 1018.5
20260504100500 67 0.0 0.0 0.00 0.00 0.00 39 1019.0
20260504080458 63 0.0 0.0 0.00 0.00 0.00 42 1019.2
20260504050455 58 0.0 0.0 0.00 0.00 0.00 45 1018.8
20260504044455 58 0.0 0.0 0.00 0.00 0.00 46 1018.7